EW5857 Weather Reports


Display with metric or nautical units.
time (UTC)temp
F
wind
direction
speed
MPH
gust
MPH
rain 1hr
in
rain 24hr
in
rain mn
in
humidity
%
barometer
mb
20191121034206 35 101 0.0 6.0 0.00 0.00 0.00 89 1012.5
20191121033705 35 107 0.0 6.0 0.00 0.00 0.00 89 1012.5
20191121033218 35 132 0.0 6.0 0.00 0.00 0.00 89 1012.6
20191121032707 35 90 0.0 2.0 0.00 0.00 0.00 89 1012.6
20191121032206 35 96 0.0 0.0 0.00 0.00 0.00 89 1012.5
20191121031705 35 82 0.0 0.0 0.00 0.00 0.00 89 1012.5
20191121031206 35 104 0.0 0.0 0.00 0.00 0.00 89 1012.5
20191121030706 35 117 0.0 6.0 0.00 0.00 0.00 89 1012.5
20191121030207 35 115 0.0 6.0 0.00 0.00 0.00 89 1012.4
20191121025733 35 120 0.0 6.0 0.00 0.00 0.00 89 1012.5
20191121025206 35 52 0.0 0.0 0.00 0.00 0.00 90 1012.5
20191121024706 35 120 0.0 0.0 0.00 0.00 0.00 90 1012.5
20191121024206 35 90 0.0 5.0 0.00 0.00 0.00 90 1012.6
20191121023706 35 120 0.0 5.0 0.00 0.00 0.00 90 1012.7
20191121023208 35 109 0.0 1.0 0.00 0.00 0.00 89 1012.6
20191121022707 35 113 0.0 1.0 0.00 0.00 0.00 89 1012.7
20191121022207 35 82 0.0 1.0 0.00 0.00 0.00 89 1012.7
20191121021706 35 111 0.0 4.0 0.00 0.00 0.00 89 1012.8
20191121021207 35 355 0.0 4.0 0.00 0.00 0.00 89 1012.8
20191121020706 35 126 0.0 4.0 0.00 0.00 0.00 89 1012.8
20191121020207 35 88 0.0 0.0 0.00 0.00 0.00 89 1012.8
20191121015712 35 355 0.0 0.0 0.00 0.00 0.00 89 1012.8
20191121015209 35 40 0.0 0.0 0.00 0.00 0.00 89 1012.9
20191121014706 35 76 0.0 0.0 0.00 0.00 0.00 89 1012.9
20191121014206 35 121 0.0 0.0 0.00 0.00 0.00 89 1013.1
20191121013706 35 112 0.0 0.0 0.00 0.00 0.00 89 1013.1
20191121013206 35 346 0.0 1.0 0.00 0.00 0.00 89 1013.2
20191121012705 35 144 0.0 1.0 0.00 0.00 0.00 89 1013.1
20191121012206 35 114 0.0 1.0 0.00 0.00 0.00 89 1013.1
20191121011706 35 104 0.0 2.0 0.00 0.00 0.00 89 1013.1
20191121011206 35 88 0.0 2.0 0.00 0.00 0.00 89 1013.2
20191121010706 35 109 0.0 2.0 0.00 0.00 0.00 89 1013.2
20191121010207 35 94 0.0 1.0 0.00 0.00 0.00 89 1013.2
20191121005719 35 90 0.0 1.0 0.00 0.00 0.00 89 1013.3
20191121005206 35 70 0.0 1.0 0.00 0.00 0.00 89 1013.3
20191121004706 35 95 0.0 1.0 0.00 0.00 0.00 89 1013.3
20191121004210 35 110 0.0 3.0 0.00 0.00 0.00 89 1013.4
20191121003728 35 344 0.0 3.0 0.00 0.00 0.00 89 1013.4
20191121003206 35 11 0.0 3.0 0.00 0.00 0.00 89 1013.5
20191121002723 35 110 0.0 2.0 0.00 0.00 0.00 89 1013.6
20191121002207 35 95 0.0 0.0 0.00 0.00 0.00 89 1013.7
20191121001718 35 79 0.0 0.0 0.00 0.00 0.00 89 1013.8
20191121001206 35 85 0.0 0.0 0.00 0.00 0.00 89 1013.8
20191121000706 35 15 0.0 0.0 0.00 0.00 0.00 89 1013.9
20191121000207 35 76 0.0 0.0 0.00 0.00 0.00 89 1013.9
20191120235706 35 98 0.0 6.0 0.00 0.00 0.00 89 1013.8
20191120235209 35 138 0.0 6.0 0.00 0.00 0.00 89 1013.9
20191120234706 35 119 0.0 0.0 0.00 0.00 0.00 89 1013.9
20191120234207 35 105 0.0 0.0 0.00 0.00 0.00 89 1014.2
20191120233707 35 143 0.0 0.0 0.00 0.00 0.00 89 1014.2
20191120233206 36 78 0.0 3.0 0.00 0.00 0.00 89 1014.2
20191120232706 36 115 0.0 4.0 0.00 0.00 0.00 89 1014.2
20191120232209 36 132 0.0 4.0 0.00 0.00 0.00 89 1014.2
20191120231707 36 130 0.0 4.0 0.00 0.00 0.00 89 1014.3
20191120231205 36 100 0.0 1.0 0.00 0.00 0.00 89 1014.3
20191120230706 36 117 0.0 0.0 0.00 0.00 0.00 89 1014.4
20191120230207 36 109 0.0 1.0 0.00 0.00 0.00 89 1014.4
20191120225706 36 10 0.0 1.0 0.00 0.00 0.00 89 1014.3
20191120225206 36 14 0.0 1.0 0.00 0.00 0.00 89 1014.4
20191120224706 36 113 0.0 6.0 0.00 0.00 0.00 89 1014.4
20191120224206 36 111 0.0 6.0 0.00 0.00 0.00 89 1014.4
20191120223711 36 110 0.0 0.0 0.00 0.00 0.00 89 1014.5
20191120223210 36 109 0.0 0.0 0.00 0.00 0.00 89 1014.5
20191120222705 36 134 0.0 5.0 0.00 0.00 0.00 89 1014.6
20191120222207 36 187 0.0 5.0 0.00 0.00 0.00 89 1014.6
20191120221706 36 125 0.0 5.0 0.00 0.00 0.00 89 1014.7
20191120221209 36 136 0.0 4.0 0.00 0.00 0.00 89 1014.6
20191120220731 36 91 0.0 4.0 0.00 0.00 0.00 89 1014.7
20191120220206 37 337 0.0 1.0 0.00 0.00 0.00 89 1014.7
20191120215723 37 126 0.0 1.0 0.00 0.00 0.00 89 1014.6
20191120215207 37 5 0.0 1.0 0.00 0.00 0.00 89 1014.7
20191120214718 37 107 0.0 6.0 0.00 0.00 0.00 89 1014.8
20191120214220 37 76 0.0 6.0 0.00 0.00 0.00 89 1014.8
20191120213716 37 126 0.0 6.0 0.00 0.00 0.00 89 1014.9
20191120213214 37 119 0.0 10.0 0.00 0.00 0.00 89 1014.9
20191120212706 37 125 0.0 10.0 0.00 0.00 0.00 89 1014.9
20191120212207 36 103 0.0 10.0 0.00 0.00 0.00 89 1015.0
20191120211719 36 121 0.0 0.0 0.00 0.00 0.00 89 1014.9
20191120211205 36 107 0.0 0.0 0.00 0.00 0.00 89 1015.0
20191120210710 36 46 0.0 0.0 0.00 0.00 0.00 89 1015.0
20191120210209 36 99 0.0 0.0 0.00 0.00 0.00 89 1015.1
20191120205707 36 121 0.0 4.0 0.00 0.00 0.00 89 1015.3
20191120205207 36 115 0.0 4.0 0.00 0.00 0.00 89 1015.2
20191120204706 37 317 0.0 1.0 0.00 0.00 0.00 89 1015.2
20191120204208 37 118 0.0 1.0 0.00 0.00 0.00 89 1015.2
20191120203713 37 119 0.0 1.0 0.00 0.00 0.00 89 1015.3
20191120203209 37 99 0.0 2.0 0.00 0.00 0.00 89 1015.3
20191120202706 37 121 0.0 3.0 0.00 0.00 0.00 89 1015.3
20191120202207 37 122 0.0 3.0 0.00 0.00 0.00 89 1015.3
20191120201707 37 11 0.0 0.0 0.00 0.00 0.00 89 1015.4
20191120201208 37 74 0.0 8.0 0.00 0.00 0.00 89 1015.5
20191120200706 37 116 0.0 8.0 0.00 0.00 0.00 89 1015.4
20191120200208 37 132 0.0 8.0 0.00 0.00 0.00 89 1015.5
20191120195708 37 95 0.0 3.0 0.00 0.00 0.00 89 1015.5
20191120195211 37 80 0.0 6.0 0.00 0.00 0.00 89 1015.5
20191120194705 37 128 0.0 6.0 0.00 0.00 0.00 89 1015.5
20191120194217 37 119 0.0 6.0 0.00 0.00 0.00 89 1015.5
20191120193734 37 90 0.0 9.0 0.00 0.00 0.00 89 1015.4
20191120193221 37 130 0.0 9.0 0.00 0.00 0.00 89 1015.4
20191120192706 37 64 0.0 9.0 0.00 0.00 0.00 89 1015.4
20191120192207 37 123 0.0 9.0 0.00 0.00 0.00 89 1015.4
20191120191708 37 114 0.0 9.0 0.00 0.00 0.00 89 1015.3
20191120191205 37 115 0.0 6.0 0.00 0.00 0.00 89 1015.4
20191120190716 37 132 0.0 1.0 0.00 0.00 0.00 89 1015.4
20191120190213 37 117 0.0 1.0 0.00 0.00 0.00 89 1015.5
20191120185730 37 140 0.0 1.0 0.00 0.00 0.00 89 1015.5
20191120185230 37 65 0.0 3.0 0.00 0.00 0.00 89 1015.5
20191120184706 37 116 0.0 3.0 0.00 0.00 0.00 89 1015.5
20191120184207 37 84 0.0 3.0 0.00 0.00 0.00 89 1015.5
20191120183705 37 59 0.0 0.0 0.00 0.00 0.00 89 1015.5
20191120183236 37 54 0.0 0.0 0.00 0.00 0.00 89 1015.5
20191120182705 37 27 0.0 1.0 0.00 0.00 0.00 89 1015.5
20191120182207 37 52 0.0 1.0 0.00 0.00 0.00 89 1015.6
20191120181726 37 133 0.0 1.0 0.00 0.00 0.00 89 1015.7
20191120181205 37 346 0.0 0.0 0.00 0.00 0.00 89 1015.8
20191120180711 37 147 0.0 0.0 0.00 0.00 0.00 89 1016.0
20191120180207 36 76 0.0 0.0 0.00 0.00 0.00 89 1016.0
20191120175718 36 101 0.0 0.0 0.00 0.00 0.00 89 1016.0
20191120175207 36 109 0.0 0.0 0.00 0.00 0.00 89 1016.0
20191120174722 36 63 0.0 0.0 0.00 0.00 0.00 89 1016.0
20191120174207 36 123 0.0 0.0 0.00 0.00 0.00 89 1016.1
20191120173708 36 97 0.0 0.0 0.00 0.00 0.00 89 1016.1
20191120173207 36 118 0.0 0.0 0.00 0.00 0.00 89 1016.1
20191120172707 36 103 0.0 0.0 0.00 0.00 0.00 89 1016.1
20191120172209 36 84 0.0 0.0 0.00 0.00 0.00 89 1016.1
20191120171708 36 143 0.0 0.0 0.00 0.00 0.00 89 1016.1
20191120171208 36 79 0.0 0.0 0.00 0.00 0.00 89 1016.1
20191120170706 36 119 0.0 0.0 0.00 0.00 0.00 89 1016.2
20191120170208 36 112 0.0 0.0 0.00 0.00 0.00 89 1016.2
20191120165722 36 131 0.0 0.0 0.00 0.00 0.00 89 1016.3
20191120165206 36 113 0.0 4.0 0.00 0.00 0.00 89 1016.3
20191120164706 37 80 0.0 4.0 0.00 0.00 0.00 89 1016.3
20191120164207 37 112 0.0 4.0 0.00 0.00 0.00 89 1016.3
20191120163706 37 346 0.0 3.0 0.00 0.00 0.00 89 1016.4
20191120163209 37 117 0.0 3.0 0.00 0.00 0.00 89 1016.4
20191120162706 37 128 0.0 3.0 0.00 0.00 0.00 89 1016.3
20191120162207 37 117 0.0 0.0 0.00 0.00 0.00 89 1016.4
20191120161706 37 100 0.0 0.0 0.00 0.00 0.00 89 1016.4
20191120161207 37 58 0.0 0.0 0.00 0.00 0.00 89 1016.3
20191120160707 37 90 0.0 0.0 0.00 0.00 0.00 89 1016.3
20191120160207 37 90 0.0 0.0 0.00 0.00 0.00 89 1016.3
20191120155707 37 128 0.0 6.0 0.00 0.00 0.00 89 1016.3
20191120155209 37 112 0.0 6.0 0.00 0.00 0.00 89 1016.4
20191120154726 37 117 0.0 0.0 0.00 0.00 0.00 89 1016.6
20191120154206 38 115 0.0 0.0 0.00 0.00 0.00 88 1016.5
20191120153710 38 123 0.0 0.0 0.00 0.00 0.00 88 1016.5
20191120153213 38 112 0.0 0.0 0.00 0.00 0.00 88 1016.5
20191120152706 38 119 0.0 1.0 0.00 0.00 0.00 88 1016.6
20191120152208 38 60 0.0 1.0 0.00 0.00 0.00 88 1016.6
20191120151706 39 59 0.0 0.0 0.00 0.00 0.00 88 1016.6
20191120151206 39 93 0.0 0.0 0.00 0.00 0.00 88 1016.6
20191120150708 39 117 0.0 0.0 0.00 0.00 0.00 88 1016.5
20191120150216 39 117 0.0 0.0 0.00 0.00 0.00 88 1016.5
20191120145707 39 74 0.0 0.0 0.00 0.00 0.00 88 1016.5
20191120145215 40 121 0.0 0.0 0.00 0.00 0.00 88 1016.5
20191120144706 40 39 0.0 2.0 0.00 0.00 0.00 88 1016.5
20191120144207 40 121 0.0 2.0 0.00 0.00 0.00 88 1016.5
20191120143706 40 126 0.0 7.0 0.00 0.00 0.00 88 1016.6
20191120143206 40 123 0.0 7.0 0.00 0.00 0.00 88 1016.6
20191120142706 40 112 0.0 7.0 0.00 0.00 0.00 88 1016.7
20191120142209 40 111 0.0 0.0 0.00 0.00 0.00 88 1016.7
20191120141706 40 85 0.0 0.0 0.00 0.00 0.00 89 1016.7
20191120141206 40 111 0.0 0.0 0.00 0.00 0.00 89 1016.7
20191120140718 40 109 0.0 2.0 0.00 0.00 0.00 89 1016.7
20191120140207 40 123 0.0 2.0 0.00 0.00 0.00 89 1016.8
20191120135708 40 121 0.0 0.0 0.00 0.00 0.00 89 1016.8
20191120135218 40 22 0.0 0.0 0.00 0.00 0.00 89 1016.9
20191120134706 40 130 0.0 0.0 0.00 0.00 0.00 89 1016.9
20191120134208 40 121 0.0 0.0 0.00 0.00 0.00 89 1017.0
20191120133731 40 114 0.0 0.0 0.00 0.00 0.00 89 1017.0
20191120133207 40 114 0.0 0.0 0.00 0.00 0.00 89 1017.0
20191120132707 40 15 0.0 0.0 0.00 0.00 0.00 89 1017.0
20191120132209 40 104 0.0 2.0 0.00 0.00 0.00 89 1017.1
20191120131711 40 86 0.0 2.0 0.00 0.00 0.00 89 1017.1
20191120131205 40 84 0.0 2.0 0.00 0.00 0.00 89 1017.1
20191120130721 40 73 0.0 1.0 0.00 0.00 0.00 89 1017.2
20191120130207 40 111 0.0 2.0 0.00 0.00 0.00 89 1017.2
20191120125708 40 111 0.0 4.0 0.00 0.00 0.00 89 1017.4
20191120125208 40 53 0.0 4.0 0.00 0.00 0.00 89 1017.3
20191120124706 40 115 0.0 4.0 0.00 0.00 0.00 89 1017.4
20191120124232 40 111 0.0 0.0 0.00 0.00 0.00 89 1017.6
20191120123706 40 111 0.0 0.0 0.00 0.00 0.00 89 1017.6
20191120123208 40 111 0.0 0.0 0.00 0.00 0.00 89 1017.6
20191120122706 40 130 0.0 0.0 0.00 0.00 0.00 90 1017.6
20191120122206 40 63 0.0 0.0 0.00 0.00 0.00 90 1017.7
20191120121716 40 160 0.0 0.0 0.00 0.00 0.00 90 1017.8
20191120121206 39 84 0.0 1.0 0.00 0.00 0.00 89 1017.9
20191120120713 39 82 0.0 1.0 0.00 0.00 0.00 90 1017.8
20191120120206 39 84 0.0 1.0 0.00 0.00 0.00 89 1017.9
20191120115717 38 132 0.0 0.0 0.00 0.00 0.00 89 1018.0
20191120115206 38 132 0.0 0.0 0.00 0.00 0.00 89 1018.0
20191120114705 37 132 0.0 0.0 0.00 0.00 0.00 90 1018.1
20191120114209 37 132 0.0 0.0 0.00 0.00 0.00 89 1018.1
20191120113706 37 132 0.0 0.0 0.00 0.00 0.00 89 1018.2
20191120113209 37 132 0.0 0.0 0.00 0.00 0.00 90 1018.2
20191120112708 37 132 0.0 0.0 0.00 0.00 0.00 90 1018.3
20191120112209 36 132 0.0 0.0 0.00 0.00 0.00 89 1018.4
20191120111710 36 132 0.0 0.0 0.00 0.00 0.00 89 1018.4
20191120111208 36 132 0.0 0.0 0.00 0.00 0.00 89 1018.4
20191120110709 36 132 0.0 0.0 0.00 0.00 0.00 90 1018.5
20191120110213 36 132 0.0 0.0 0.00 0.00 0.00 90 1018.5
20191120105731 36 132 0.0 0.0 0.00 0.00 0.00 90 1018.6
20191120105208 36 132 0.0 0.0 0.00 0.00 0.00 90 1018.7
20191120104707 37 132 0.0 0.0 0.00 0.00 0.00 90 1018.7
20191120104227 36 132 0.0 0.0 0.00 0.00 0.00 90 1018.8
20191120103707 36 132 0.0 0.0 0.00 0.00 0.00 90 1018.9
20191120103209 36 132 0.0 0.0 0.00 0.00 0.00 90 1019.0
20191120102708 36 133 0.0 0.0 0.00 0.00 0.00 90 1019.0
20191120102217 36 133 0.0 0.0 0.00 0.00 0.00 90 1019.0
20191120101728 35 134 0.0 0.0 0.00 0.00 0.00 90 1019.1
20191120101213 35 134 0.0 1.0 0.00 0.00 0.00 90 1019.1
20191120100708 34 119 0.0 1.0 0.00 0.00 0.00 90 1019.2
20191120100209 34 181 0.0 1.0 0.00 0.00 0.00 90 1019.2
20191120095707 33 176 0.0 0.0 0.00 0.00 0.00 90 1019.2
20191120095220 33 157 0.0 0.0 0.00 0.00 0.00 90 1019.2
20191120094707 32 157 0.0 0.0 0.00 0.00 0.00 90 1019.2
20191120094209 32 157 0.0 0.0 0.00 0.00 0.00 90 1019.2
20191120093707 32 157 0.0 0.0 0.00 0.00 0.00 90 1019.1
20191120093218 31 157 0.0 0.0 0.00 0.00 0.00 90 1019.1
20191120092707 31 157 0.0 0.0 0.00 0.00 0.00 90 1019.0
20191120092209 31 157 0.0 0.0 0.00 0.00 0.00 90 1019.0
20191120091209 31 157 0.0 0.0 0.00 0.00 0.00 90 1019.0
20191120090709 30 157 0.0 0.0 0.00 0.00 0.00 90 1019.0
20191120090209 30 157 0.0 0.0 0.00 0.00 0.00 90 1019.0
20191120085707 30 157 0.0 1.0 0.00 0.00 0.00 90 1018.9
20191120085208 30 157 0.0 1.0 0.00 0.00 0.00 90 1019.0
20191120084707 30 157 0.0 1.0 0.00 0.00 0.00 90 1019.0
20191120084209 30 225 0.0 0.0 0.00 0.00 0.00 90 1019.0
20191120083708 29 225 0.0 0.0 0.00 0.00 0.00 90 1019.0
20191120083209 29 225 0.0 0.0 0.00 0.00 0.00 90 1019.0
20191120082708 29 225 0.0 0.0 0.00 0.00 0.00 90 1019.1
20191120082208 29 225 0.0 0.0 0.00 0.00 0.00 90 1019.0
20191120081708 29 225 0.0 0.0 0.00 0.00 0.00 90 1019.0
20191120081208 29 225 0.0 0.0 0.00 0.00 0.00 90 1019.0
20191120080708 29 225 0.0 0.0 0.00 0.00 0.00 90 1019.0
20191120080210 29 225 0.0 0.0 0.00 0.00 0.00 90 1019.0
20191120075716 29 225 0.0 0.0 0.00 0.00 0.00 90 1019.0
20191120075208 29 225 0.0 0.0 0.00 0.00 0.00 90 1019.0
20191120074708 29 225 0.0 0.0 0.00 0.00 0.00 90 1019.0
20191120074210 29 225 0.0 0.0 0.00 0.00 0.00 90 1019.1
20191120073707 29 225 0.0 0.0 0.00 0.00 0.00 90 1019.1
20191120073223 29 225 0.0 0.0 0.00 0.00 0.00 90 1019.1
20191120072717 29 225 0.0 0.0 0.00 0.00 0.00 90 1019.1
20191120072208 29 225 0.0 0.0 0.00 0.00 0.00 90 1019.2
20191120071707 29 225 0.0 0.0 0.00 0.00 0.00 90 1019.1
20191120071209 29 225 0.0 0.0 0.00 0.00 0.00 90 1019.2
20191120070708 29 225 0.0 0.0 0.00 0.00 0.00 90 1019.2
20191120070209 29 225 0.0 0.0 0.00 0.00 0.00 90 1019.2
20191120065707 29 225 0.0 0.0 0.00 0.00 0.00 90 1019.1
20191120065209 29 225 0.0 0.0 0.00 0.00 0.00 90 1019.1
20191120064707 29 225 0.0 0.0 0.00 0.00 0.00 90 1019.1
20191120064214 29 227 0.0 0.0 0.00 0.00 0.00 90 1019.1
20191120063708 29 227 0.0 0.0 0.00 0.00 0.00 90 1018.9
20191120063212 29 227 0.0 0.0 0.00 0.00 0.00 90 1018.9
20191120062707 29 227 0.0 0.0 0.00 0.00 0.00 90 1019.0
20191120062208 29 227 0.0 0.0 0.00 0.00 0.00 90 1019.0
20191120061707 29 227 0.0 0.0 0.00 0.00 0.00 90 1019.0
20191120061208 29 227 0.0 0.0 0.00 0.00 0.00 90 1019.2
20191120060707 29 227 0.0 0.0 0.00 0.01 0.00 90 1019.2
20191120060209 29 227 0.0 0.0 0.00 0.01 0.00 90 1019.3
20191120055715 29 227 0.0 0.0 0.00 0.01 0.00 90 1019.2
20191120055208 29 227 0.0 0.0 0.00 0.01 0.00 90 1019.3
20191120054707 29 227 0.0 0.0 0.00 0.01 0.00 90 1019.3
20191120054208 29 227 0.0 0.0 0.00 0.01 0.00 90 1019.3
20191120053708 29 227 0.0 0.0 0.00 0.01 0.00 90 1019.3
20191120053210 29 227 0.0 0.0 0.00 0.02 0.00 90 1019.3
20191120052708 29 227 0.0 0.0 0.00 0.02 0.00 90 1019.2
20191120052210 29 227 0.0 0.0 0.00 0.02 0.00 90 1019.1
20191120051710 29 227 0.0 0.0 0.00 0.02 0.00 90 1019.1
20191120051208 29 227 0.0 0.0 0.00 0.02 0.00 90 1019.1
20191120050708 29 227 0.0 0.0 0.00 0.02 0.00 90 1019.1
20191120050209 29 227 0.0 0.0 0.00 0.02 0.00 90 1019.1
20191120045707 29 227 0.0 0.0 0.00 0.03 0.00 90 1019.1
20191120045208 29 227 0.0 0.0 0.00 0.03 0.00 90 1019.1
20191120044707 29 227 0.0 0.0 0.00 0.04 0.00 90 1019.1
20191120044209 29 227 0.0 0.0 0.00 0.05 0.00 90 1019.2
20191120043707 29 227 0.0 0.0 0.00 0.05 0.00 90 1019.2
20191120043209 29 227 0.0 0.0 0.00 0.05 0.00 90 1019.2
20191120042707 29 227 0.0 0.0 0.00 0.05 0.00 90 1019.3
20191120042209 29 227 0.0 0.0 0.00 0.05 0.00 90 1019.3
20191120041711 29 227 0.0 0.0 0.00 0.05 0.00 90 1019.3
20191120041208 29 227 0.0 0.0 0.00 0.05 0.00 90 1019.4
20191120040708 29 227 0.0 0.0 0.00 0.05 0.00 90 1019.4
20191120040209 29 227 0.0 0.0 0.00 0.05 0.00 90 1019.4
20191120035707 29 227 0.0 0.0 0.00 0.05 0.00 90 1019.5
20191120035208 29 227 0.0 0.0 0.00 0.06 0.00 90 1019.5
20191120034709 29 227 0.0 0.0 0.00 0.06 0.00 90 1019.5